Location: Centrum přírodních věd - Hvězdárna Jičín
(50.4344°N, 15.3406°E)
Time: 06:08:13
(UTC+01:00)

ISS - Pass Details

Date: 21 February 2020
Orbit: 415 x 423 km, 51.6° (Epoch: 27 February)

Event Time Altitude Azimuth Distance (km) Brightness Sun altitude
Rises 05:54:11 0° 192° (SSW) 2,354 0.0 -11.2°
Reaches altitude 10° 05:57:24 10° 158° (SSE) 1,498 -0.6 -10.6°
Maximum altitude 05:58:38 12° 136° (SE) 1,403 -0.4 -10.4°
Drops below altitude 10° 05:59:53 10° 114° (ESE) 1,504 0.3 -10.2°
Sets 06:03:08 0° 81° (E) 2,375 1.9 -9.7°
